EW2498 Weather Reports


Display with metric or nautical units.
time (UTC)temp
F
wind
direction
speed
MPH
gust
MPH
rain 1hr
in
rain 24hr
in
rain mn
in
humidity
%
barometer
mb
20260505024804 80 115 1.0 2.0 0.00 0.18 0.18 83 1012.0
20260505023305 80 115 2.0 3.0 0.00 0.18 0.18 83 1011.9
20260505021804 80 115 1.0 5.0 0.00 0.19 0.18 82 1012.1
20260505021304 80 279 1.0 3.0 0.00 0.19 0.18 82 1012.2
20260505020804 80 211 1.0 5.0 0.00 0.19 0.18 82 1012.3
20260505020305 80 215 0.0 0.0 0.00 0.19 0.18 82 1012.3
20260505013805 80 211 2.0 5.0 0.00 0.19 0.18 82 1012.4
20260505012305 80 228 0.0 0.0 0.00 0.19 0.18 81 1012.4
20260505011804 80 224 0.0 0.0 0.00 0.19 0.18 81 1012.4
20260505010304 80 216 1.0 2.0 0.00 0.19 0.18 81 1012.3
20260505005805 80 172 0.0 2.0 0.00 0.19 0.18 81 1012.3
20260505005305 80 242 1.0 3.0 0.00 0.19 0.18 81 1012.3
20260505004305 81 224 1.0 3.0 0.00 0.19 0.18 81 1012.3
20260505001804 81 225 2.0 5.0 0.00 0.19 0.18 80 1012.3
20260505000805 81 147 1.0 3.0 0.00 0.19 0.18 80 1012.2
20260504235804 81 122 1.0 2.0 0.00 0.19 0.18 79 1012.2
20260504234304 81 229 0.0 2.0 0.00 0.19 0.18 79 1011.9
20260504233305 81 266 1.0 3.0 0.00 0.19 0.18 79 1011.8
20260504231805 82 219 1.0 1.0 0.00 0.19 0.18 78 1011.6
20260504231304 82 212 0.0 1.0 0.00 0.19 0.18 78 1011.6
20260504230805 82 265 1.0 1.0 0.00 0.19 0.18 78 1011.5
20260504224805 83 266 1.0 5.0 0.00 0.19 0.18 77 1011.3
20260504224304 83 163 8.0 12.0 0.00 0.19 0.18 77 1011.2
20260504223805 83 155 8.0 13.0 0.00 0.19 0.18 77 1011.0
20260504221305 83 142 11.0 14.0 0.00 0.19 0.18 77 1010.7
20260504215305 83 147 13.0 16.0 0.00 0.19 0.18 76 1010.3
20260504213305 83 139 14.0 15.0 0.00 0.19 0.18 77 1010.1
20260504212805 83 137 13.0 15.0 0.00 0.19 0.18 76 1010.1
20260504212304 83 137 13.0 16.0 0.00 0.19 0.18 76 1010.1
20260504210805 83 136 13.0 15.0 0.00 0.19 0.18 76 1010.0
20260504210305 83 132 13.0 15.0 0.00 0.19 0.18 76 1009.9
20260504201804 84 132 13.0 14.0 0.00 0.19 0.18 75 1009.5
20260504200804 84 125 13.0 16.0 0.00 0.19 0.18 75 1009.5
20260504200304 84 120 14.0 15.0 0.00 0.19 0.18 75 1009.4
20260504194805 84 129 13.0 15.0 0.00 0.19 0.18 74 1009.2
20260504193805 84 127 14.0 15.0 0.00 0.19 0.18 74 1009.2
20260504193304 84 133 13.0 16.0 0.00 0.19 0.18 74 1009.2
20260504192804 84 124 13.0 14.0 0.00 0.19 0.18 73 1009.1
20260504191805 84 121 15.0 16.0 0.00 0.19 0.18 73 1009.0
20260504191304 84 123 14.0 16.0 0.00 0.19 0.18 73 1009.0
20260504185305 84 117 13.0 15.0 0.00 0.19 0.18 72 1009.0
20260504184805 84 116 13.0 16.0 0.00 0.19 0.18 73 1009.0
20260504183805 84 122 14.0 18.0 0.00 0.19 0.18 73 1009.0
20260504182804 84 112 15.0 16.0 0.00 0.19 0.18 73 1009.0
20260504181804 84 116 16.0 17.0 0.00 0.19 0.18 72 1009.0
20260504180304 84 117 16.0 17.0 0.00 0.19 0.18 73 1009.2
20260504175804 84 118 15.0 16.0 0.00 0.19 0.18 73 1009.1
20260504175305 84 118 15.0 16.0 0.00 0.19 0.18 73 1009.0
20260504173305 84 116 12.0 13.0 0.00 0.19 0.18 75 1009.2
20260504172305 84 120 11.0 13.0 0.00 0.19 0.18 75 1009.1
20260504171304 84 129 12.0 14.0 0.00 0.19 0.18 74 1009.2
20260504170804 84 133 13.0 14.0 0.00 0.19 0.18 75 1009.3
20260504160305 84 129 14.0 17.0 0.00 0.19 0.18 75 1010.3
20260504140305 82 166 9.0 17.0 0.00 0.16 0.15 78 1011.9
20260504130804 83 119 7.0 10.0 0.01 0.16 0.15 78 1011.9
20260504120304 82 138 10.0 13.0 0.00 0.15 0.14 79 1012.0
20260504110304 81 139 7.0 12.0 0.00 0.17 0.14 82 1011.6
20260504100304 77 117 2.0 5.0 0.00 0.18 0.14 86 1011.1
20260504080804 76 260 1.0 3.0 0.01 0.19 0.14 86 1010.0
20260504045804 79 96 13.0 15.0 0.02 0.23 0.09 84 1010.3
20260504044804 78 106 15.0 16.0 0.03 0.24 0.09 84 1010.5
20260504044304 78 112 14.0 16.0 0.04 0.24 0.09 84 1010.6
20260504043805 78 117 12.0 13.0 0.07 0.24 0.08 85 1010.6
20260504042804 78 101 12.0 14.0 0.08 0.25 0.08 85 1010.5
20260504041804 78 101 15.0 16.0 0.08 0.26 0.08 85 1010.6
20260504041304 78 95 15.0 16.0 0.08 0.26 0.08 86 1010.8
20260504040804 78 95 16.0 16.0 0.07 0.26 0.07 86 1010.9
20260504040304 77 93 16.0 16.0 0.07 0.27 0.07 85 1011.1
20260504035804 78 102 17.0 17.0 0.06 0.27 0.06 85 1011.1
20260504035305 78 102 17.0 18.0 0.06 0.27 0.06 85 1011.2
20260504034805 78 87 16.0 17.0 0.06 0.28 0.06 85 1011.2
20260504033804 79 102 26.0 30.0 0.01 0.26 0.01 84 1011.1
20260504031804 80 53 24.0 26.0 0.01 0.31 0.00 84 1011.2
20260504031304 79 53 24.0 25.0 0.01 0.32 0.00 84 1011.2
20260504030810 79 53 22.0 25.0 0.01 0.34 0.00 84 1011.0
20260504030304 80 63 24.0 25.0 0.01 0.36 0.00 84 1011.2